Theta_e
311 314 317 316 314 312 314 315 315 315 315 313 314 318 320 319 320 321 323 327 327 326 327 328 330 330 330 330 329 331 325 317 317 319 319 317 314 316 317 316 319 320 319 320 321 322 322 321 321 322 322 324 329 330 325 323 323 326 329 325 324 325 324 322 319 320 320 319 319 318 319 322 323 322 321 321 321 322 324 325 329 328 326 330 337 338 337 337
311 310 313 315 315 314 312 313 314 315 315 314 314 317 319 319 319 320 322 326 327 326 326 327 329 329 329 329 329 330 324 318 321 321 320 318 316 316 316 316 317 319 320 321 322 322 323 323 322 323 324 326 328 328 325 322 323 329 329 325 325 324 321 318 317 317 317 318 318 317 317 318 320 321 321 321 322 322 323 325 328 330 327 328 334 338 337 337
309 308 309 313 315 315 313 312 312 314 314 315 316 316 318 318 318 319 321 324 327 327 326 327 329 330 329 328 329 328 323 319 321 321 320 319 319 318 318 319 318 319 320 321 323 323 324 325 323 324 325 325 326 326 325 322 323 326 323 326 326 320 318 317 316 316 316 317 317 318 317 317 318 319 321 321 321 321 323 324 326 329 329 328 332 337 336 337
306 306 307 310 313 314 314 314 312 312 313 314 317 317 316 317 317 318 321 322 325 327 326 327 328 329 329 328 329 326 321 320 322 321 321 320 318 319 320 321 320 319 319 321 323 323 324 325 323 324 326 326 326 324 323 321 324 329 324 323 323 319 318 316 316 315 315 316 316 317 317 317 317 317 318 319 320 321 321 322 323 326 328 328 332 337 336 336
306 306 306 307 311 313 314 315 314 313 312 313 316 317 316 318 318 319 321 322 323 326 327 326 327 328 329 328 328 324 320 323 324 321 322 321 318 319 321 321 320 319 320 321 323 324 324 325 324 325 326 327 327 324 321 319 322 332 329 322 319 319 319 316 316 316 316 316 316 317 317 316 316 316 317 318 319 321 320 319 320 321 327 327 331 337 336 335
308 306 306 306 308 312 314 315 316 314 312 312 314 316 317 318 319 320 321 322 323 326 327 327 327 328 328 328 327 323 321 325 326 322 322 322 318 319 321 321 320 319 320 321 322 324 324 325 325 326 326 327 326 324 323 321 320 326 325 321 319 318 317 317 317 317 317 318 318 318 318 316 316 317 317 318 318 319 320 320 320 319 326 328 330 337 335 335
311 308 306 306 308 311 312 315 316 315 313 312 313 315 317 318 319 320 320 321 323 326 327 327 327 327 328 328 325 323 323 324 324 323 323 322 319 318 321 320 319 319 320 321 322 324 325 325 326 326 326 327 326 325 324 322 322 323 321 319 318 317 318 318 318 318 318 319 319 319 319 319 318 318 317 318 317 318 320 318 319 319 326 329 329 336 336 335
312 311 307 305 308 310 311 313 316 316 314 313 312 314 317 318 318 320 319 319 322 326 327 327 328 327 328 326 323 324 324 323 323 323 322 322 319 318 320 320 319 320 320 321 322 324 326 325 326 326 326 327 325 325 325 322 323 323 321 318 316 318 319 319 319 320 320 320 320 319 320 322 320 317 316 317 317 318 319 318 319 319 327 331 329 335 335 335
311 312 310 307 307 308 310 312 314 316 315 313 313 313 316 318 319 320 319 318 319 324 327 327 328 328 328 325 322 325 324 322 323 323 321 321 319 319 319 319 319 320 321 321 321 324 326 326 325 325 328 332 329 325 324 324 324 323 322 319 317 319 320 321 321 321 322 321 321 321 322 323 319 316 317 318 317 318 319 319 320 320 327 332 330 333 334 334
311 311 311 309 307 307 309 311 313 315 315 314 314 313 315 318 320 320 319 319 318 322 327 328 328 327 326 324 323 327 324 321 324 324 321 320 319 319 320 319 319 320 321 321 321 324 325 326 326 326 329 332 330 327 324 324 325 323 324 322 320 321 322 323 322 322 324 324 323 322 323 323 318 316 318 320 320 320 321 320 320 321 327 332 331 332 333 332
309 310 310 310 308 307 308 311 312 314 315 315 315 314 314 317 319 320 321 321 319 320 325 328 328 327 324 322 324 327 324 321 325 324 321 320 319 319 319 318 318 320 322 323 323 323 324 326 327 327 327 328 328 328 326 324 323 323 323 324 324 323 323 323 324 324 324 324 323 321 322 323 321 319 318 319 321 321 320 320 321 321 326 330 330 332 331 331
308 308 308 310 310 308 307 309 312 313 315 316 316 314 314 316 318 320 321 321 319 320 324 327 326 325 323 322 324 325 323 324 325 323 321 320 318 318 318 317 318 321 322 324 324 322 324 326 327 329 328 329 329 328 327 324 322 322 323 325 326 325 325 324 324 325 324 324 322 320 323 324 323 323 320 319 319 319 318 319 322 323 325 328 329 333 332 330
308 307 307 309 310 309 308 308 310 312 313 315 316 315 315 315 317 320 321 321 320 320 324 326 325 323 322 323 323 321 323 326 325 323 321 320 320 319 318 317 319 322 322 323 324 322 324 327 328 329 328 329 328 326 325 324 323 323 324 325 327 327 327 325 324 325 324 324 322 322 325 326 324 325 322 320 319 318 319 319 324 324 324 326 329 334 334 331
310 309 308 309 309 310 310 309 310 312 313 315 316 315 315 316 318 320 321 321 319 320 323 325 324 322 322 323 322 320 322 326 325 324 322 321 321 320 320 320 320 322 321 322 324 324 325 327 327 328 326 326 325 324 324 324 323 324 325 326 327 329 329 326 326 326 324 322 320 323 325 325 325 323 321 321 320 319 319 320 324 325 323 326 330 334 335 332
311 310 310 309 309 310 311 310 311 312 312 313 315 316 316 316 317 319 320 319 319 320 322 324 324 322 322 323 321 320 321 324 326 325 324 322 321 320 321 322 321 321 322 323 324 327 327 326 326 328 326 324 324 326 326 326 325 324 327 329 329 329 329 327 325 324 323 319 316 322 325 325 325 322 318 320 321 319 320 320 322 325 324 325 331 333 334 333
310 311 310 310 310 310 310 310 311 311 310 312 314 316 316 316 317 319 320 318 318 318 320 323 324 322 323 324 321 320 321 323 326 326 325 322 322 321 320 323 323 320 322 325 326 327 325 325 326 326 325 324 325 327 328 330 329 327 329 332 331 329 329 328 323 320 322 319 314 319 325 326 324 320 315 316 319 320 320 319 320 323 324 326 330 333 333 333
311 310 311 311 310 310 310 311 311 311 311 312 313 315 316 316 318 319 320 319 317 317 319 321 322 322 323 322 321 321 321 323 326 326 325 322 322 322 320 323 323 321 324 326 327 327 325 326 326 326 325 326 326 328 331 334 333 331 330 332 332 330 330 328 323 319 319 319 316 316 319 322 322 319 315 315 317 318 319 319 318 320 325 327 329 332 332 332
311 310 310 311 311 311 311 311 311 311 312 312 312 315 316 316 318 319 320 319 318 318 319 319 321 325 326 321 321 322 320 322 325 326 325 323 322 322 322 324 323 323 327 327 327 328 327 326 325 327 328 327 327 328 333 334 333 332 332 332 332 331 331 330 324 318 316 318 319 319 318 318 320 319 318 317 316 317 317 318 318 318 323 327 329 331 331 331
311 310 309 310 311 311 312 311 309 309 310 310 312 315 316 317 318 319 318 318 317 318 320 322 322 325 325 322 322 322 320 322 325 326 324 323 323 324 324 324 324 326 328 329 328 328 328 327 327 329 329 328 328 328 331 332 330 331 331 331 332 332 331 331 323 315 316 318 318 320 320 320 320 320 319 319 318 318 317 318 318 318 320 324 329 330 330 332
310 310 309 310 311 311 312 310 308 308 310 312 314 316 317 318 319 320 318 316 317 318 321 323 322 322 321 320 321 322 321 322 325 324 324 324 324 324 325 326 328 328 328 329 329 327 327 329 329 330 329 328 327 327 328 329 328 330 332 330 331 330 330 331 325 316 316 321 322 321 323 323 323 322 320 319 318 319 318 318 318 318 318 321 326 329 329 331
311 310 310 310 311 311 311 310 309 310 311 313 315 316 317 318 320 321 319 317 317 317 319 319 319 320 318 316 317 320 322 323 324 324 324 324 324 325 326 325 328 330 328 328 328 327 328 331 330 328 328 327 326 327 327 329 328 330 334 332 331 330 330 329 325 318 318 325 327 325 326 325 325 325 323 321 320 319 318 318 318 317 318 320 323 327 328 328
310 309 309 310 310 311 310 309 310 311 312 314 315 316 316 316 318 318 318 318 317 316 317 316 316 318 316 314 314 316 321 325 325 325 324 324 325 327 327 325 328 329 327 328 330 330 330 331 329 327 327 326 326 327 327 328 328 330 334 334 333 331 330 328 321 318 320 324 327 326 326 326 324 324 324 323 322 319 318 317 318 317 317 318 320 323 326 328
310 308 308 308 309 310 309 310 311 313 314 315 315 315 315 315 316 316 317 318 318 317 317 317 317 318 316 315 315 314 319 325 327 325 324 325 325 327 327 326 327 327 327 329 330 331 332 330 327 326 326 326 327 327 327 328 328 331 333 334 334 332 332 330 322 319 319 321 324 324 323 322 321 322 322 322 322 320 319 318 318 319 318 318 318 320 324 327
309 308 308 307 308 309 309 311 313 314 314 314 314 315 315 315 315 316 317 318 318 316 315 316 316 316 317 316 315 315 317 323 326 325 323 324 325 325 326 326 326 327 328 329 329 330 331 328 325 326 326 327 328 327 327 328 329 333 333 333 333 331 331 330 322 318 318 319 320 319 322 322 320 320 320 321 322 321 320 319 318 319 320 320 321 322 324 325
309 307 307 307 309 310 311 312 313 313 314 314 314 314 315 315 314 314 315 316 316 314 314 315 315 314 315 314 314 314 314 318 324 325 323 324 325 325 326 326 326 328 328 328 329 329 329 327 325 327 327 327 329 328 328 329 330 334 334 332 331 329 330 329 323 321 325 327 320 318 327 331 324 322 322 321 322 321 321 320 319 318 319 320 321 322 324 325
309 307 308 308 310 311 312 312 312 312 314 314 314 314 314 314 314 313 314 314 315 314 313 315 314 314 314 314 314 315 315 318 322 324 323 324 324 325 327 327 326 328 328 327 328 329 328 326 326 327 329 329 330 330 329 329 331 335 333 330 329 329 330 331 327 327 332 332 321 316 327 330 324 322 322 322 323 322 322 322 321 320 319 318 318 319 321 323
310 309 310 310 310 312 312 312 312 312 313 313 313 313 313 313 313 312 314 315 315 314 314 314 314 314 314 314 315 315 317 321 323 324 323 324 324 324 328 329 327 327 327 328 330 331 328 327 328 329 329 330 331 331 329 329 332 334 332 329 328 328 331 332 331 331 331 328 322 318 322 325 324 323 321 322 322 322 324 324 323 322 320 319 317 317 319 320
310 311 311 311 312 312 310 311 312 312 312 313 313 314 313 312 311 311 314 316 316 314 314 314 313 313 314 315 315 315 317 321 326 325 322 324 324 325 328 328 327 327 327 328 331 331 327 328 329 329 330 331 330 331 330 329 332 333 331 329 328 328 330 331 332 332 327 326 327 325 323 326 326 324 321 322 321 322 324 323 325 324 323 321 318 317 318 319
310 310 311 311 312 311 308 310 312 312 312 313 313 312 312 311 311 313 314 315 316 314 314 315 314 314 316 317 315 315 316 320 326 325 322 324 323 323 327 327 324 327 327 326 330 330 327 327 328 328 330 330 330 331 331 329 329 330 330 329 329 329 329 330 331 330 326 327 330 328 327 330 330 327 324 325 322 322 323 323 324 325 324 322 318 318 318 318
309 308 308 310 309 308 308 310 311 311 312 313 312 311 311 311 312 315 315 316 318 315 314 316 315 317 318 318 317 316 316 318 323 324 323 324 322 322 326 325 325 327 328 327 329 329 326 326 328 329 329 329 329 331 331 330 329 329 330 329 329 328 327 329 328 326 327 330 330 328 327 330 332 331 326 326 324 322 322 322 323 324 324 322 319 319 319 318
307 305 305 307 307 307 309 310 309 312 312 312 311 309 311 312 312 316 316 316 318 317 316 317 316 318 319 318 319 318 317 319 322 324 325 325 323 324 327 328 329 330 330 329 328 327 328 330 329 329 328 327 330 330 328 329 329 329 330 328 329 327 326 328 326 324 331 332 326 325 328 329 331 331 325 326 326 323 322 321 322 324 324 324 322 321 319 319
307 305 305 307 307 306 309 310 310 311 311 310 310 310 311 312 313 316 315 313 316 317 317 317 317 319 319 318 319 318 318 320 323 325 326 326 325 325 328 330 330 331 332 329 327 328 330 330 328 328 328 327 330 329 327 328 327 328 328 328 331 330 328 330 327 325 331 329 319 320 326 328 328 327 324 326 325 323 323 322 323 323 324 326 325 323 321 321
306 306 307 307 308 308 310 311 310 311 309 308 309 310 312 313 314 315 313 312 315 316 316 317 318 319 319 319 319 319 319 321 323 325 325 326 325 326 328 329 329 331 331 330 329 330 331 329 327 327 327 327 328 327 328 329 327 327 327 328 331 331 331 334 330 327 330 327 320 321 326 328 328 324 322 323 322 322 323 323 324 324 325 325 326 325 324 322
305 306 306 307 309 310 311 311 311 310 309 308 309 311 312 313 315 314 312 312 314 315 316 317 318 319 319 319 319 320 321 321 323 325 325 326 326 326 328 328 327 328 330 329 329 330 332 332 329 327 327 327 326 325 326 327 326 326 326 327 329 330 331 333 331 329 331 327 321 323 329 331 330 325 320 319 319 319 320 320 322 324 324 325 324 324 324 323
305 305 306 307 309 310 311 312 311 309 310 310 309 310 312 314 314 313 313 313 314 316 318 318 318 319 319 319 318 320 321 320 321 324 325 325 326 326 328 328 327 327 327 328 329 329 331 332 329 325 326 326 326 324 322 325 327 326 325 327 329 329 329 330 330 327 330 329 323 323 328 327 323 321 318 318 319 318 318 318 318 320 321 321 322 321 322 322
305 305 306 307 309 310 310 312 311 309 310 311 310 309 312 313 313 313 314 313 314 316 319 319 319 319 319 319 319 320 321 320 320 323 325 324 324 325 326 328 327 325 325 326 328 329 330 331 326 324 325 325 327 325 320 324 327 324 326 327 327 327 326 328 329 325 325 330 327 323 325 322 319 320 320 320 322 319 318 318 316 317 318 318 320 321 321 323
306 306 306 307 308 309 309 311 310 309 309 309 309 310 311 312 313 314 314 313 313 315 318 320 320 319 319 319 319 320 320 319 320 323 325 324 324 324 325 328 327 324 323 324 327 327 328 328 322 322 326 324 324 325 321 323 324 323 326 326 324 328 327 326 328 327 326 330 328 324 324 323 323 325 323 321 322 321 319 317 315 316 317 318 321 321 322 326
305 306 306 307 308 307 308 309 309 309 310 308 308 310 311 311 312 313 313 314 314 314 317 320 319 318 319 320 319 319 319 320 320 322 323 323 324 324 325 328 326 323 323 323 325 325 326 326 321 320 323 322 321 323 324 324 322 322 324 323 324 330 329 326 327 330 329 329 330 327 325 325 325 324 321 322 324 323 321 319 316 316 317 317 319 321 323 327
304 305 305 306 307 307 307 307 306 308 310 309 308 311 311 311 312 313 313 314 315 314 316 317 317 317 318 319 318 318 319 320 320 321 322 323 324 325 325 327 327 324 323 322 324 324 323 326 323 320 320 321 321 322 324 323 320 321 323 322 324 327 328 327 327 330 331 330 330 330 328 327 326 322 321 322 323 323 322 320 318 316 317 318 320 323 326 326
303 304 305 305 306 307 307 306 305 306 308 309 309 310 310 311 312 312 313 314 314 314 316 315 315 317 318 318 318 317 318 319 319 320 321 322 324 325 325 325 326 325 323 323 323 323 323 325 326 320 318 322 323 322 324 323 320 321 323 323 324 324 326 328 327 327 329 330 330 330 330 329 324 321 321 320 320 322 323 322 322 320 318 320 323 327 328 324
303 304 304 305 306 307 308 307 306 306 307 308 308 309 310 310 311 311 312 312 311 312 314 314 315 316 315 317 318 317 317 318 319 319 319 321 324 326 325 324 325 324 324 325 324 323 323 323 324 322 321 324 324 319 319 320 320 321 322 323 323 323 324 328 329 327 326 328 329 329 329 328 323 320 321 320 320 322 324 324 325 323 320 322 327 327 325 322
304 303 303 304 305 307 307 306 306 306 306 307 308 309 309 309 310 310 311 311 310 310 310 312 315 314 314 316 317 317 316 317 318 319 320 321 323 325 325 323 324 324 324 327 326 323 322 322 321 321 321 321 319 315 315 318 318 319 321 322 323 322 323 327 329 328 326 326 325 327 329 327 322 320 320 321 322 322 323 323 322 321 319 323 326 324 321 319
304 304 303 304 305 307 306 306 306 305 305 306 307 309 309 309 310 310 310 311 310 309 309 312 313 314 314 315 315 315 316 317 317 318 320 321 322 324 325 323 323 323 325 328 327 324 322 321 320 320 318 317 316 315 316 318 318 320 320 321 322 322 322 326 327 326 326 327 326 328 328 326 322 320 321 322 321 319 319 319 318 319 319 320 321 320 319 318
303 303 303 304 306 306 306 305 306 305 305 306 308 309 309 309 310 310 309 310 310 309 310 311 312 313 316 316 315 314 316 318 318 318 319 322 323 323 323 323 323 323 326 328 327 325 324 322 320 321 321 320 319 319 321 320 320 320 320 320 321 322 323 326 326 322 324 328 327 327 327 325 321 320 320 319 317 317 316 317 318 320 320 319 318 319 319 318
303 303 304 304 305 306 306 306 305 306 305 306 308 308 309 309 309 309 309 309 310 309 310 310 311 313 315 316 316 315 316 318 318 317 318 321 322 321 321 322 324 324 325 326 324 323 324 321 321 323 325 324 323 324 324 322 321 321 320 320 321 322 322 323 323 323 324 327 326 325 325 324 322 321 320 316 314 315 315 316 318 319 319 320 320 321 322 321
303 303 303 304 305 305 305 305 305 306 305 306 307 307 308 308 309 310 310 310 310 310 310 311 311 312 312 312 314 316 315 317 318 316 316 318 320 320 319 321 323 324 325 324 323 322 323 321 320 323 324 323 324 324 324 322 321 322 322 321 321 322 323 323 323 324 324 325 326 325 323 324 323 321 320 317 315 317 318 316 317 318 319 319 320 323 324 324
303 303 303 304 305 305 305 305 305 306 305 306 306 306 307 307 308 310 310 310 310 310 310 312 312 312 312 311 313 315 315 316 317 316 315 315 317 318 318 319 322 324 323 322 322 322 322 321 321 321 322 322 322 322 322 321 322 321 322 322 322 322 324 325 324 324 323 324 326 325 323 324 322 319 319 319 317 318 319 317 316 318 321 322 322 323 323 323
303 303 303 304 305 305 305 305 305 306 306 306 306 306 306 306 307 309 309 309 310 310 311 312 312 311 312 313 314 315 315 315 315 315 315 314 315 317 318 320 322 323 322 321 321 321 321 321 321 321 322 323 322 321 320 321 321 321 321 322 322 322 323 324 324 323 323 324 324 322 322 323 320 318 319 319 317 317 317 317 316 317 320 321 321 322 323 325
301 303 303 303 304 304 304 305 305 305 306 306 306 307 307 306 306 308 309 308 310 310 310 311 311 311 311 312 313 314 315 316 315 315 314 314 314 316 319 322 321 320 321 321 321 322 322 321 322 322 322 323 322 321 321 321 322 321 321 321 321 321 322 322 323 322 322 323 322 321 322 321 319 320 320 319 319 319 318 318 317 317 319 320 321 323 326 326
301 303 303 303 304 304 304 305 305 305 306 306 306 306 307 307 306 307 308 308 309 310 309 309 310 311 311 311 311 311 312 315 316 315 314 314 315 315 318 322 321 318 319 320 320 322 322 322 322 322 323 323 322 322 322 321 322 322 321 321 321 321 322 321 322 322 322 323 321 321 323 321 320 322 324 323 322 319 317 316 314 315 319 321 322 324 324 323
300 301 301 302 304 304 304 305 305 305 306 306 306 306 306 307 307 307 308 308 309 310 309 308 309 311 311 311 310 310 310 312 314 315 315 315 316 317 318 320 320 319 319 320 320 321 321 322 322 322 323 323 322 322 322 321 322 322 321 322 321 321 322 321 321 321 321 322 322 322 323 321 321 323 324 323 323 319 317 315 314 315 318 319 319 320 321 321
300 300 300 302 303 303 303 304 305 305 306 305 305 306 306 306 307 307 308 308 308 309 310 309 308 310 312 312 310 309 309 309 310 313 314 314 316 318 318 317 318 319 320 320 320 321 322 321 320 321 323 323 321 321 321 321 323 322 321 321 320 320 321 320 320 321 320 321 322 322 321 320 322 324 323 322 323 321 319 317 317 318 319 319 318 318 319 318
Wind_Speed
26 25 24 24 25 26 26 24 24 23 23 22 21 21 20 20 20 20 21 22 23 24 23 20 21 23 21 20 20 16 13 12 11 13 14 22 27 16 15 21 13 13 18 17 14 9 9 9 11 12 3 3 2 2 1 1 2 2 1 2 3 4 3 3 4 3 1 3 4 5 3 3 3 2 1 2 2 2 3 3 4 4 6 8 11 20 22 22
27 27 26 25 24 25 27 26 25 24 24 23 22 22 21 21 21 20 21 23 23 24 24 20 21 23 22 20 19 17 13 12 12 14 22 26 24 18 16 20 17 13 15 18 18 16 12 8 11 12 5 1 2 1 1 1 4 1 2 3 4 1 1 2 4 4 2 3 3 5 4 3 3 2 1 1 4 5 4 4 5 5 7 6 10 19 21 21
29 28 28 27 25 24 26 27 27 25 24 23 22 23 23 22 22 21 21 23 23 24 25 22 21 23 23 20 20 18 12 11 12 17 26 26 21 21 19 19 19 16 17 19 18 17 14 11 13 12 5 3 1 0 0 1 3 1 2 3 2 3 3 2 4 4 3 3 3 4 3 1 3 2 1 1 3 4 6 6 7 8 8 7 9 18 20 19
30 30 30 28 27 26 26 26 28 27 26 24 24 23 23 23 24 22 22 23 23 24 26 24 22 24 23 21 21 17 11 7 11 19 25 25 24 22 19 17 18 18 18 19 17 16 16 15 13 10 6 4 3 3 3 2 2 0 1 2 2 4 4 3 4 4 3 2 3 2 1 1 3 3 1 2 4 4 4 2 3 7 11 11 10 16 19 18
31 31 31 31 29 28 27 26 27 28 28 26 25 24 23 23 24 23 22 23 24 24 26 25 24 24 24 22 20 16 11 3 7 21 26 24 26 23 20 19 18 18 20 21 18 17 19 15 10 7 4 4 5 5 6 4 2 2 1 4 4 1 2 4 5 3 1 1 1 3 3 2 3 3 3 4 4 3 1 3 4 1 9 15 12 15 17 16
32 32 32 32 31 30 29 27 26 27 29 28 27 25 24 24 24 23 23 23 24 25 26 26 25 25 25 23 21 19 12 3 3 19 30 27 28 26 23 21 19 20 22 21 17 14 14 11 7 6 4 5 7 6 5 4 2 3 3 3 5 4 1 4 4 1 3 1 2 4 3 3 4 4 4 5 7 3 2 4 4 6 9 19 17 16 15 13
33 32 33 33 33 32 31 29 27 27 29 30 28 26 25 25 25 24 23 23 23 25 26 26 26 26 27 23 21 17 11 8 3 9 31 32 31 30 24 22 21 22 21 18 16 11 9 10 9 7 5 6 8 7 5 4 3 4 4 5 2 4 1 3 3 1 2 2 2 2 2 4 4 4 1 1 5 5 0 6 5 4 11 19 15 14 14 14
32 32 33 34 34 33 32 31 29 28 29 30 30 28 27 25 26 26 25 24 22 25 26 25 27 27 28 22 15 9 10 15 7 3 30 36 34 33 26 24 23 23 21 20 17 10 8 11 10 7 7 6 7 8 7 5 3 5 6 6 4 1 1 1 0 2 2 1 0 1 4 6 5 1 1 3 7 8 3 5 6 3 10 14 12 13 13 13
32 32 33 35 35 35 34 33 32 30 30 31 31 29 28 26 27 27 26 26 23 25 26 26 27 27 31 20 9 7 16 25 9 3 28 35 34 34 27 25 25 24 21 21 20 14 8 8 10 7 4 3 4 7 9 5 3 6 4 4 5 2 2 1 2 4 2 2 1 3 6 6 2 1 3 6 8 8 5 6 5 5 7 9 9 11 12 11
33 33 33 34 35 36 35 35 34 32 30 31 31 31 30 27 27 27 27 27 25 25 26 27 27 29 30 16 8 9 16 29 16 7 26 35 35 34 28 27 28 26 20 19 21 15 8 7 9 5 5 2 4 3 8 6 3 6 3 2 2 2 2 2 4 4 4 4 4 6 6 6 1 2 4 2 2 2 7 6 5 5 6 7 7 9 12 13
33 33 33 34 35 37 37 36 35 33 32 31 32 32 32 29 26 27 28 27 26 25 26 28 28 33 30 15 10 8 8 25 20 10 24 33 36 35 31 31 32 29 20 14 18 16 13 10 9 7 3 4 3 3 4 4 5 6 5 2 2 4 5 5 6 5 4 4 2 3 7 8 4 4 6 3 0 3 6 6 6 6 6 7 7 8 10 12
34 34 34 34 35 36 38 38 37 36 34 32 32 32 33 31 28 27 28 27 26 25 26 28 30 34 27 11 12 8 7 20 21 14 24 31 36 37 34 35 33 28 24 15 17 19 18 11 13 8 1 3 6 5 3 5 6 5 6 2 4 5 7 9 8 6 4 2 3 3 6 9 7 8 10 10 7 7 7 6 7 7 6 7 7 7 7 10
34 35 35 35 35 36 37 39 40 38 36 34 33 32 32 32 28 27 27 28 24 22 25 27 30 33 20 5 12 14 9 15 23 21 26 31 30 31 31 34 33 28 29 24 16 20 20 11 11 6 1 2 4 2 2 6 5 5 5 4 3 4 7 9 9 9 5 2 4 3 4 7 6 7 9 10 8 7 6 6 7 7 6 6 7 6 6 10
34 35 36 36 36 36 36 39 41 39 38 35 33 32 32 32 30 27 26 27 24 20 21 25 29 28 14 4 11 21 14 13 22 26 30 31 26 23 23 28 32 28 27 24 16 17 16 10 9 4 3 0 2 2 3 5 4 4 3 2 4 4 4 6 9 11 8 3 5 4 5 7 6 6 4 4 7 6 6 6 7 6 6 6 6 7 7 9
35 35 36 37 38 38 38 39 40 40 39 35 33 32 31 32 31 27 26 27 24 19 17 22 28 20 6 4 7 22 23 12 19 28 32 33 26 22 22 24 28 28 25 22 17 12 12 12 8 4 1 1 3 4 3 3 4 4 3 2 4 4 3 4 5 9 8 3 5 7 5 6 8 4 3 4 5 5 5 5 6 7 7 6 6 7 6 8
36 36 37 38 40 40 40 41 39 40 40 37 34 32 32 32 31 29 27 26 23 20 16 15 23 16 1 2 8 20 20 12 18 28 31 34 30 25 27 24 23 27 23 17 16 14 15 11 2 1 1 2 5 5 3 3 3 4 4 3 4 5 4 3 1 4 7 4 5 9 5 2 4 5 5 4 4 5 4 5 6 7 8 7 6 6 6 7
36 37 38 39 40 41 42 42 41 40 39 38 35 31 31 31 30 30 27 25 22 21 18 11 14 13 3 4 11 15 15 14 20 27 28 32 31 30 31 22 19 25 18 12 16 14 10 8 1 0 1 2 5 5 5 5 4 4 4 3 3 6 6 4 0 1 4 4 5 8 8 6 5 4 4 5 6 6 6 6 6 6 7 7 6 6 6 7
37 38 39 39 40 42 42 42 42 42 40 39 35 31 32 31 32 31 25 24 18 14 15 10 9 8 5 7 7 14 24 22 22 26 28 30 29 31 30 21 18 20 14 9 11 9 5 4 2 3 3 4 7 7 6 6 6 5 5 4 4 5 7 6 3 1 5 5 6 7 8 10 9 9 8 7 7 7 7 7 6 6 6 7 7 6 6 7
37 38 41 41 41 42 41 41 43 44 41 39 35 31 30 27 27 28 26 23 15 7 6 8 9 2 2 6 5 14 29 28 23 23 26 28 26 26 25 21 19 17 12 7 7 8 6 3 3 7 7 8 10 9 7 5 8 8 7 6 5 5 7 7 5 4 6 5 6 8 9 10 9 9 9 9 8 9 9 8 7 7 6 6 7 6 7 7
36 38 40 40 42 42 40 41 42 44 42 38 36 28 19 16 13 14 18 18 14 8 4 7 15 4 4 1 2 15 26 26 21 19 26 31 27 23 15 12 14 12 12 11 9 9 7 5 7 10 10 11 11 11 8 5 6 6 5 6 6 5 6 7 6 6 6 4 6 8 9 11 10 8 9 9 10 9 10 10 9 8 7 7 7 8 9 8
36 37 38 39 41 42 41 41 42 44 43 40 38 21 7 13 10 6 12 11 16 16 6 5 10 6 2 3 3 7 15 18 17 19 30 31 25 21 11 8 12 10 12 13 10 8 8 9 12 12 10 11 12 12 10 8 7 4 3 4 5 6 7 4 6 6 6 3 4 7 9 12 12 10 10 10 11 10 10 11 11 10 9 8 8 9 9 8
37 38 40 40 41 42 42 43 43 45 43 40 36 16 8 21 14 10 18 10 15 21 10 8 7 4 3 3 7 4 1 12 15 16 27 27 18 15 10 9 12 10 12 12 8 8 9 12 14 13 11 11 12 11 11 11 9 5 3 3 5 6 6 2 8 7 5 3 4 6 8 10 11 11 11 11 11 11 11 11 10 10 10 9 9 10 9 8
37 39 42 42 43 44 43 45 44 44 42 38 32 19 19 30 20 15 17 6 10 19 13 10 6 3 4 3 2 3 2 11 15 14 23 23 14 13 13 12 13 13 14 13 10 11 11 12 14 14 13 13 13 13 12 10 8 6 4 4 5 5 5 2 5 6 5 3 5 6 7 8 10 11 11 11 12 12 13 12 10 10 10 11 11 10 10 10
37 40 42 43 44 43 44 46 44 41 41 37 33 28 27 31 26 21 12 3 6 9 5 7 6 4 5 3 2 2 3 7 13 16 24 22 13 12 13 14 16 14 14 16 15 14 11 9 14 15 15 15 14 15 14 9 7 6 6 6 5 5 6 3 4 4 3 4 6 6 6 7 9 11 11 11 12 13 13 12 12 10 10 10 10 9 11 12
38 40 42 43 41 42 45 42 38 39 37 32 33 34 31 30 30 24 10 2 3 3 1 5 4 7 8 2 3 1 4 5 8 16 22 23 19 14 11 10 12 14 17 20 17 13 10 9 15 17 16 17 14 14 15 11 6 6 7 7 7 6 7 5 6 4 1 3 4 4 3 4 5 8 9 6 8 12 12 13 14 12 10 10 9 9 10 11
40 40 42 44 39 43 41 26 29 39 29 22 31 34 29 30 32 23 8 2 2 3 6 9 6 10 14 6 4 3 3 6 9 17 20 23 21 14 11 9 7 12 19 18 11 7 7 11 16 16 15 17 14 11 14 14 7 4 7 8 9 8 6 4 2 3 1 3 1 3 3 4 4 6 7 5 5 9 10 12 15 13 12 11 10 10 9 9
40 39 41 41 40 43 28 13 28 34 16 16 31 32 27 30 32 20 6 1 4 5 8 8 5 11 16 11 8 6 3 3 7 14 18 23 18 6 9 13 8 11 13 10 6 5 10 15 16 16 16 15 12 10 13 14 7 3 8 12 11 8 5 4 3 2 1 2 1 4 4 4 7 6 7 8 9 9 9 11 13 14 15 13 12 12 11 11
38 38 39 37 41 38 18 16 30 22 14 24 32 30 30 32 28 15 5 4 4 5 7 7 4 9 12 10 13 8 6 4 7 12 20 25 16 4 10 16 13 14 15 12 10 9 14 19 19 19 15 11 11 9 11 13 7 2 7 10 9 7 5 4 3 2 2 3 3 5 4 4 7 4 5 8 9 9 10 10 11 13 16 16 13 12 13 13
37 37 37 38 37 24 12 22 28 17 23 34 32 32 35 32 19 6 4 5 2 4 6 8 5 8 9 9 12 10 8 5 4 8 17 19 11 2 7 15 15 16 16 14 11 7 11 16 18 18 12 9 10 7 9 12 7 4 6 6 4 3 1 1 1 1 4 2 6 5 4 4 6 4 4 6 6 7 8 8 8 10 13 15 13 13 14 13
37 34 36 37 25 13 14 21 22 24 32 36 34 34 32 24 9 3 7 5 2 4 5 8 8 10 13 11 9 10 11 10 4 6 10 9 7 3 2 8 9 11 12 11 6 3 6 10 10 11 9 10 10 6 7 9 7 6 6 6 5 2 3 4 3 4 2 5 6 6 7 5 5 4 5 6 7 8 8 6 7 8 8 11 12 12 12 11
35 36 35 30 19 17 18 14 18 31 36 38 39 30 18 9 3 6 7 1 2 6 6 8 11 13 18 16 10 10 13 12 6 10 8 5 7 6 5 5 3 6 10 8 3 2 7 9 6 5 7 11 12 6 3 6 8 7 5 5 4 2 4 3 3 3 2 5 1 5 9 8 7 5 2 3 4 6 8 7 7 8 8 8 10 10 11 10
36 37 32 23 19 20 17 16 26 34 37 41 35 18 7 3 3 4 3 0 2 6 7 9 11 13 17 17 12 12 13 11 9 14 11 7 8 8 10 10 8 7 8 8 6 3 6 8 8 4 2 9 14 8 3 5 8 7 6 7 6 2 1 1 2 2 5 3 1 1 3 6 9 7 6 9 9 6 7 7 7 8 8 7 6 8 9 8
32 28 22 17 17 17 19 27 34 36 39 36 20 6 4 4 4 4 3 2 1 3 7 11 11 13 17 16 12 12 13 10 11 15 14 11 9 11 13 15 16 11 6 12 11 7 6 8 12 9 1 6 12 11 8 7 10 11 9 9 8 5 3 4 4 2 4 4 4 2 3 3 6 4 9 15 14 12 9 8 7 7 8 7 4 2 3 3
25 21 19 16 15 19 25 30 34 38 36 23 9 4 5 4 2 3 2 3 1 3 8 12 14 14 15 14 12 12 12 10 10 14 15 12 9 12 12 13 18 10 6 12 10 9 11 7 13 13 7 11 14 13 13 10 11 11 8 7 7 5 5 5 4 4 4 1 3 4 3 3 3 2 6 8 8 9 7 7 7 6 8 7 4 3 3 3
23 22 19 16 16 20 24 28 33 35 24 10 6 5 5 5 1 2 3 2 2 4 7 11 16 14 10 10 11 13 9 7 11 12 14 13 10 12 11 12 16 10 8 11 6 8 10 4 9 9 5 15 17 10 9 9 8 6 4 6 6 4 4 3 2 4 4 2 1 5 3 3 2 6 9 5 4 6 6 7 6 7 8 6 6 7 6 6
24 20 15 14 16 16 20 27 31 27 14 6 6 4 4 3 1 2 4 3 3 6 10 11 12 10 8 7 8 13 8 3 9 10 10 14 12 14 13 11 15 15 13 12 5 7 9 3 9 9 6 16 17 10 11 10 7 4 3 7 4 1 3 1 1 1 2 2 3 4 4 5 4 9 10 9 11 9 7 7 7 8 8 7 7 8 7 6
20 15 11 11 13 14 18 25 26 19 8 4 5 5 4 1 1 2 3 4 3 5 9 10 7 6 8 6 6 14 10 3 8 8 7 12 11 13 15 10 13 17 14 12 5 6 8 3 3 7 9 12 9 9 12 7 6 7 6 7 4 4 2 1 2 1 2 5 3 5 8 5 3 6 6 7 12 9 8 9 9 8 7 7 8 7 7 7
17 13 10 10 12 13 16 22 20 10 3 3 5 4 2 1 3 3 2 5 5 3 5 5 3 3 7 9 8 13 13 6 8 7 5 8 6 11 16 10 11 16 14 12 6 4 8 5 3 2 5 5 4 6 7 2 0 5 6 8 6 1 3 4 4 4 5 6 4 5 8 6 7 6 2 3 9 8 8 9 9 8 7 8 8 6 5 4
15 9 6 8 12 12 15 19 13 6 1 5 5 4 3 3 3 4 3 4 4 2 3 2 1 0 4 8 9 12 14 9 8 7 5 6 4 10 17 10 10 17 16 12 7 6 8 5 1 2 2 4 5 3 6 3 1 2 4 6 5 3 4 6 5 2 3 5 5 4 4 4 6 7 5 9 10 8 7 7 8 9 8 7 5 4 4 4
8 5 5 9 11 13 17 17 8 1 2 4 4 3 2 3 4 5 4 4 3 1 2 2 1 1 2 5 8 10 10 9 9 6 5 7 5 8 16 13 10 16 17 13 9 7 6 4 5 1 3 3 5 5 9 11 7 6 7 9 7 3 1 2 3 2 2 3 3 4 4 5 4 6 11 14 12 8 7 5 6 7 6 5 6 6 6 5
4 4 5 9 11 13 15 10 5 4 2 2 3 2 2 3 5 4 4 6 4 3 3 3 2 3 2 4 6 7 6 6 8 6 3 7 8 6 13 17 14 15 17 13 9 8 5 4 7 4 2 6 7 5 5 10 12 11 9 10 10 6 3 2 5 5 3 3 3 3 5 6 4 4 8 11 9 7 7 6 5 5 6 6 5 5 5 5
3 4 6 11 14 13 10 5 4 4 2 3 3 3 3 4 4 5 4 5 5 3 3 3 2 2 3 3 3 4 5 5 6 7 4 7 10 6 10 19 18 16 16 10 9 8 4 5 7 5 3 3 3 1 3 3 11 9 6 8 9 7 6 7 8 6 5 5 3 1 5 6 3 3 5 7 5 5 6 6 5 4 6 6 5 4 3 3
3 6 8 13 16 11 6 4 5 4 4 4 2 4 5 3 3 6 4 3 4 3 2 1 2 1 3 3 3 3 4 3 4 7 4 6 10 5 6 17 19 17 15 9 7 6 4 5 6 4 2 2 2 1 4 4 3 5 4 7 9 10 10 7 4 4 4 5 4 2 6 7 3 0 2 4 6 6 5 5 5 5 5 5 5 4 2 1
5 5 6 10 13 9 4 4 5 5 4 3 3 3 3 3 4 6 5 5 4 3 2 2 1 1 1 2 3 5 5 3 3 6 4 3 6 3 3 14 19 17 13 9 8 7 3 6 8 6 3 1 2 2 1 2 3 7 9 10 11 13 12 6 2 3 3 7 9 7 7 6 3 4 4 3 4 4 4 4 6 6 5 5 4 3 2 0
5 4 4 4 5 4 2 0 2 4 5 4 3 3 2 2 3 6 7 6 4 4 4 3 1 2 2 1 1 4 7 4 1 3 3 2 2 1 4 10 16 16 13 11 11 8 6 7 10 11 11 10 9 10 9 8 7 6 10 13 13 15 15 10 4 3 5 7 9 8 8 4 3 6 5 2 3 5 6 4 6 5 5 5 4 3 2 1
3 3 3 2 2 1 2 2 2 2 6 6 3 3 5 4 3 5 6 5 5 5 4 3 3 3 2 1 1 2 7 5 2 2 3 2 2 2 4 8 14 15 11 11 10 5 4 7 11 12 14 15 13 8 9 11 10 8 11 15 13 11 11 9 5 6 8 6 4 7 8 6 9 10 7 5 6 7 6 5 6 5 5 5 5 5 3 4
1 3 4 4 2 1 4 3 3 3 4 6 4 4 7 6 3 3 3 3 5 6 3 3 5 4 4 3 1 1 5 5 4 3 3 3 3 4 6 7 12 12 9 8 9 5 4 7 11 13 15 12 7 7 12 15 16 16 17 16 15 12 9 8 9 10 8 3 5 10 10 12 18 16 9 7 8 8 7 6 7 6 6 6 5 6 5 6
1 2 3 3 2 3 4 3 4 5 3 5 5 4 6 7 4 5 3 2 5 6 4 2 5 7 7 7 4 1 4 4 4 4 4 3 3 2 4 6 10 11 9 6 6 4 3 8 12 13 13 8 8 10 14 15 15 17 19 20 21 19 17 15 15 16 13 8 12 18 18 22 24 15 9 9 9 8 8 7 7 6 7 7 6 6 6 6
1 2 3 2 0 3 5 5 5 6 5 4 4 5 7 8 8 6 4 3 4 6 6 4 7 9 9 9 6 3 4 4 3 5 5 4 4 3 2 4 5 7 9 7 4 2 3 6 10 11 10 8 9 11 14 15 13 13 17 20 20 21 22 21 20 21 19 16 19 24 23 25 21 10 7 9 10 8 7 6 7 7 7 7 7 7 7 7
1 2 2 1 1 1 4 4 5 6 4 4 5 5 6 8 9 7 5 6 6 6 8 9 9 11 11 10 9 8 10 7 3 3 5 5 4 4 6 5 2 6 10 7 4 2 2 4 8 10 8 7 8 12 14 15 15 15 17 18 18 19 19 19 19 19 17 19 24 22 18 21 14 5 4 6 6 7 6 7 8 7 8 8 8 8 8 8
4 4 3 1 1 2 3 3 3 3 4 5 5 4 6 8 8 7 5 7 8 7 10 14 12 10 10 12 12 14 14 11 7 4 5 7 5 3 3 2 1 6 9 8 6 5 3 4 6 7 6 6 7 12 15 14 13 14 16 18 19 19 18 19 22 21 18 19 20 15 14 17 8 6 5 7 4 6 7 8 8 6 8 9 9 8 9 9
4 4 4 2 1 2 1 2 3 3 3 4 5 5 6 5 5 6 4 5 9 10 10 13 11 7 7 12 17 17 14 14 12 7 4 6 5 3 3 3 2 4 8 8 7 7 6 6 6 7 8 8 8 11 13 12 9 10 15 21 24 24 23 23 22 22 20 17 14 13 17 16 5 7 10 11 9 9 8 8 7 7 9 10 9 10 10 10
Wind_Direction
227 223 219 222 225 228 230 230 230 232 233 233 232 232 233 232 232 228 228 227 224 226 231 236 229 219 219 223 219 222 224 214 209 202 213 212 201 199 192 196 202 196 201 202 200 197 187 187 178 173 160 1 2 5 318 61 57 18 317 226 244 240 263 345 30 21 112 98 78 84 26 352 109 133 127 150 228 185 161 150 106 84 85 83 112 128 135 143
227 228 225 224 223 225 228 230 231 233 234 233 231 232 233 233 234 230 227 227 224 224 226 231 231 219 214 219 219 218 217 218 222 219 220 213 203 205 197 192 193 206 209 200 204 202 201 196 158 164 174 72 340 355 298 6 70 55 274 244 247 215 290 356 50 33 39 53 63 83 56 6 34 70 112 231 220 185 187 182 150 134 112 105 129 132 138 145
225 228 229 227 225 225 227 229 230 232 233 232 230 231 234 235 235 232 228 225 224 224 222 224 225 216 212 213 218 216 206 223 238 232 227 216 206 208 201 189 182 201 211 198 201 195 198 199 158 157 172 159 221 39 307 44 87 303 285 258 252 131 110 65 74 59 41 23 48 70 59 61 31 30 138 261 269 211 205 198 173 174 154 145 150 140 144 152
225 226 229 229 228 227 226 228 229 230 232 232 228 230 235 235 234 232 228 224 223 223 221 220 219 218 213 210 218 207 184 236 248 232 228 215 207 202 194 190 184 199 208 199 206 201 196 198 176 170 177 156 156 152 170 187 129 67 296 273 243 146 132 90 89 62 50 35 33 33 1 79 26 356 282 273 283 249 225 216 167 187 165 153 159 150 154 161
223 225 228 229 229 228 227 227 227 228 230 232 228 229 233 232 232 230 226 225 223 222 222 218 217 219 211 210 215 190 167 237 235 217 218 209 203 194 185 190 185 190 201 207 221 216 196 192 186 179 186 159 149 166 173 168 128 129 226 288 292 190 146 113 95 30 352 154 25 20 18 348 328 293 248 235 255 250 130 42 28 42 151 154 162 157 161 170
220 222 225 228 229 227 227 226 226 227 228 231 229 228 230 230 229 227 225 224 222 221 221 218 215 215 212 213 209 187 183 204 152 201 205 200 197 189 182 182 179 184 199 218 237 230 191 173 186 188 193 178 168 177 153 141 162 180 207 274 305 335 82 110 87 356 326 21 51 37 13 319 294 274 237 215 235 241 103 95 53 25 132 154 159 158 166 176
218 219 222 226 227 226 226 225 226 226 227 229 229 227 227 229 228 225 223 221 222 220 220 219 214 212 214 211 197 191 215 239 337 201 196 193 191 189 185 175 172 181 199 230 244 229 181 171 191 189 198 195 178 178 130 119 185 183 174 184 254 341 41 97 82 198 323 354 35 24 306 279 272 281 329 252 259 268 342 114 107 59 130 149 157 163 171 178
217 219 220 222 225 226 225 225 225 225 227 228 228 226 225 228 227 225 221 220 221 218 219 219 213 209 207 198 179 193 229 227 295 238 191 187 184 187 184 173 171 179 201 232 236 218 187 185 191 189 201 198 178 177 144 116 178 198 179 166 156 348 231 109 75 236 277 275 41 323 276 279 270 284 339 267 263 259 237 126 126 118 139 153 164 167 171 178
219 219 219 220 222 225 225 224 224 225 225 227 229 226 223 225 224 224 222 219 221 219 216 213 213 207 199 191 166 211 222 210 237 253 188 181 178 181 177 173 173 181 205 226 229 222 198 183 194 201 182 193 208 172 159 151 184 199 183 151 153 178 224 236 271 260 281 263 269 279 273 278 275 38 275 252 251 236 179 137 145 157 163 165 168 169 171 178
220 221 220 221 221 223 225 224 223 223 223 226 228 225 222 222 222 223 220 218 219 218 214 209 211 202 192 185 174 218 219 202 216 238 188 180 179 174 171 176 172 180 202 220 229 225 211 197 189 177 108 156 280 133 162 185 161 167 149 73 154 230 252 243 261 265 288 278 261 267 276 278 218 148 253 284 321 196 143 152 165 168 184 176 172 173 174 181
222 223 222 222 221 222 223 223 222 221 221 222 226 225 222 221 221 220 218 216 216 218 216 209 206 197 186 178 196 220 195 190 204 219 190 183 181 174 173 178 173 179 190 214 237 228 223 213 152 126 111 168 195 133 160 163 118 140 131 63 269 276 279 258 258 255 262 257 227 277 289 283 251 210 232 238 208 153 154 180 176 181 196 181 182 177 176 184
225 225 225 223 221 221 222 223 222 220 220 220 224 225 222 222 220 219 217 215 217 218 216 211 204 192 181 184 212 193 137 181 193 191 188 187 186 182 179 179 177 180 178 193 237 228 221 201 141 139 209 163 151 148 159 144 125 136 149 198 237 247 269 264 263 263 257 223 98 28 309 277 252 238 231 219 198 174 184 192 174 189 199 184 186 175 178 186
225 226 226 225 222 222 222 222 222 221 220 219 222 223 221 220 218 216 214 211 212 211 210 211 201 185 174 207 215 187 145 174 186 184 185 186 188 186 182 179 177 177 179 189 218 225 221 195 158 160 106 131 148 141 135 150 154 155 172 223 218 223 252 243 247 257 256 208 120 79 290 263 259 267 242 206 175 162 191 199 180 188 198 189 184 174 180 188
223 224 224 224 223 222 220 220 221 220 218 218 220 221 219 217 215 211 210 208 205 201 203 206 197 183 180 217 205 198 183 163 179 183 181 182 183 184 181 177 177 176 180 194 216 228 215 167 145 124 53 311 150 116 115 142 172 167 159 215 220 229 238 212 216 228 230 201 139 150 251 258 265 307 347 121 136 159 202 208 190 186 200 196 179 179 183 191
223 223 222 222 222 220 219 219 219 219 218 218 218 218 217 215 214 209 208 208 201 191 191 199 194 180 193 261 194 194 191 178 182 181 178 179 177 179 181 176 177 179 182 198 210 203 166 134 126 123 83 272 139 141 140 149 189 187 170 178 203 221 245 226 198 195 201 201 161 181 242 263 246 247 56 88 130 167 222 226 203 190 199 201 182 185 184 189
222 221 221 221 220 219 220 217 216 218 217 216 215 217 216 214 212 208 208 206 199 190 178 190 197 186 190 253 174 181 190 202 187 178 178 179 176 176 178 172 173 182 188 192 180 158 146 138 107 97 155 197 162 155 160 179 195 193 204 199 180 197 229 245 200 184 190 199 193 202 232 274 241 209 146 154 162 174 226 250 232 198 192 201 191 189 189 186
221 220 220 220 219 218 218 216 213 213 213 212 212 213 213 213 210 206 205 202 200 195 188 194 204 204 240 163 159 172 190 203 185 177 180 181 178 173 172 168 171 180 177 159 152 146 155 159 127 160 180 198 178 167 177 196 197 178 195 230 205 190 202 200 154 272 192 202 217 213 236 251 259 246 190 185 177 180 207 227 246 222 188 191 194 193 196 195
221 218 218 217 217 215 215 214 210 210 211 209 209 209 210 211 208 205 199 190 184 182 196 213 203 212 233 186 169 177 183 189 185 180 180 182 181 173 172 170 169 167 147 135 153 150 169 175 168 188 187 200 193 188 192 188 178 168 169 203 232 197 199 196 156 152 175 199 230 221 234 239 243 248 247 242 207 201 215 209 229 238 201 182 188 199 198 203
219 218 217 215 212 210 211 211 209 211 210 208 206 203 204 205 206 205 189 172 168 167 182 195 192 238 279 189 193 180 179 180 179 180 181 180 178 175 176 171 163 156 142 153 172 162 170 152 180 201 195 197 196 196 198 163 162 180 179 188 223 216 210 202 158 161 180 194 231 231 243 244 236 233 245 260 238 222 226 215 214 225 220 193 185 200 205 207
220 218 214 212 209 207 209 209 209 210 208 203 196 190 195 194 195 201 182 169 182 187 115 162 189 208 4 335 180 164 172 179 178 181 185 179 172 173 180 171 163 161 162 169 169 168 171 166 199 209 195 188 190 197 200 178 177 193 188 198 226 236 229 207 160 153 174 192 234 231 248 257 251 240 235 250 254 242 229 221 216 209 211 206 191 197 205 210
218 216 210 209 208 206 207 206 208 208 205 198 188 183 188 184 184 171 164 178 198 188 124 112 171 168 82 330 306 152 163 184 187 184 183 178 171 174 184 180 172 178 176 165 155 159 176 198 208 204 189 182 187 196 198 204 218 209 182 212 228 239 246 208 133 139 160 174 243 242 254 258 254 250 238 235 244 251 237 220 218 211 204 204 199 200 203 205
216 214 209 207 206 204 204 205 206 202 199 194 188 194 196 188 198 170 158 176 201 192 168 120 118 113 150 267 294 312 168 186 189 191 182 175 176 179 179 183 179 179 174 162 151 161 190 215 204 188 187 185 187 198 198 204 220 215 189 217 226 231 246 173 127 147 158 164 243 250 257 260 258 253 243 232 230 239 239 223 215 213 209 207 204 203 200 194
212 210 207 205 203 202 203 204 203 196 192 191 190 199 193 189 194 169 158 155 186 193 194 174 162 141 173 229 273 351 293 188 183 193 184 175 178 176 170 180 181 174 171 169 166 173 198 214 192 177 187 190 190 198 199 203 214 213 197 216 234 224 227 200 137 153 159 188 260 271 268 266 264 259 247 233 227 231 234 231 226 216 209 211 208 201 194 191
207 205 203 201 200 201 200 199 198 193 191 192 194 196 190 185 182 164 149 84 161 183 202 188 192 188 185 200 138 65 310 213 184 183 186 178 165 167 174 178 175 173 177 176 174 185 201 195 176 177 186 191 196 197 197 201 208 210 206 216 233 220 220 210 139 153 183 219 246 271 286 270 244 242 243 232 226 230 231 230 233 225 211 212 211 204 196 191
202 200 197 194 195 196 193 190 190 189 189 191 192 193 189 181 177 168 149 58 142 136 160 166 181 217 208 169 101 84 335 283 206 181 185 181 165 164 179 180 176 177 178 177 178 195 202 165 169 182 184 188 197 197 194 194 195 207 210 222 237 229 231 211 146 138 269 259 217 205 269 278 235 233 241 229 213 223 228 226 231 230 218 211 213 214 205 194
194 196 192 189 190 188 185 184 183 180 180 189 188 186 184 177 173 166 136 44 183 153 166 162 159 194 197 183 103 96 319 289 216 184 184 185 176 171 176 177 188 181 172 174 182 197 188 165 173 183 182 186 197 199 194 189 186 200 189 205 238 245 253 259 154 141 238 282 196 172 236 285 300 274 260 266 240 226 223 218 224 229 223 213 210 211 209 201
184 185 182 182 183 180 179 175 175 175 173 185 181 176 174 168 164 158 129 281 218 148 146 162 172 169 178 183 141 126 259 249 184 185 187 187 183 182 184 175 180 182 165 165 192 185 166 171 177 180 180 185 195 199 193 184 180 194 169 182 219 241 256 271 276 235 235 345 302 203 212 271 282 266 245 258 264 252 236 220 216 219 223 220 211 207 208 206
173 173 172 173 174 174 173 158 164 172 177 170 166 166 166 159 152 150 162 214 184 125 135 159 173 152 155 161 150 169 247 190 169 188 186 188 188 183 189 181 176 175 166 171 191 176 166 176 178 176 180 188 192 188 179 174 174 177 161 169 197 220 235 250 264 264 50 25 273 211 176 254 268 248 211 230 242 243 239 231 220 215 217 217 211 205 206 209
162 164 165 163 164 165 163 160 162 168 167 161 156 155 154 149 142 136 192 204 149 110 144 152 156 155 140 131 153 190 238 228 219 182 175 187 198 234 198 186 178 169 173 188 190 165 171 180 175 173 180 186 180 167 164 174 177 156 140 121 120 173 209 16 306 71 60 308 250 206 180 249 273 250 210 226 231 230 231 231 231 222 212 208 206 207 207 208
154 157 156 154 155 157 154 158 163 162 158 156 153 147 139 137 141 176 188 192 111 117 151 157 164 161 147 140 160 189 213 234 251 166 171 180 191 245 205 176 178 163 174 190 177 148 168 165 164 174 185 176 159 140 160 175 164 138 126 100 88 68 45 41 46 74 57 262 236 192 198 239 277 235 187 202 211 211 218 226 234 233 219 208 206 210 210 207
149 150 152 151 150 153 151 146 153 155 153 150 146 138 123 119 170 191 181 215 78 142 156 154 161 160 158 163 166 174 204 233 215 172 185 170 171 202 167 155 166 151 169 172 133 186 168 149 154 185 187 165 148 135 172 182 159 143 136 122 109 41 37 33 36 90 216 252 214 189 199 210 239 240 206 238 228 202 203 212 224 230 229 219 212 213 211 206
146 150 155 156 154 155 151 145 151 151 148 145 140 134 123 126 212 194 170 302 146 163 161 152 164 166 161 169 174 175 195 222 200 183 191 179 178 193 179 173 165 157 173 158 137 170 170 161 161 159 217 171 151 142 173 188 170 165 159 147 154 165 117 177 182 185 229 241 322 199 184 214 240 252 256 265 273 250 214 207 217 225 235 237 224 219 218 210
144 146 148 145 147 149 141 142 147 146 144 144 140 135 146 163 202 176 158 209 162 145 156 151 164 166 157 165 179 181 191 212 199 184 188 188 186 194 195 184 172 169 170 156 153 160 167 180 170 157 226 187 161 156 169 182 181 182 175 165 174 169 168 199 188 229 245 229 226 160 88 271 266 262 240 241 249 247 236 230 230 227 239 256 258 208 215 220
138 135 131 127 126 133 139 142 146 147 146 143 133 131 151 178 196 113 144 226 108 126 157 153 158 164 165 170 175 175 188 220 212 184 185 191 188 193 203 192 179 169 138 157 167 168 170 184 176 168 167 173 178 180 173 165 175 187 176 164 182 171 175 194 178 213 226 187 220 179 134 241 230 299 258 238 240 239 239 244 241 240 243 253 267 237 211 213
129 127 123 119 118 127 141 146 148 152 153 142 127 145 167 175 164 113 156 211 176 146 146 154 157 159 173 179 175 177 177 210 218 198 186 191 194 192 193 191 184 166 136 163 174 169 176 187 168 168 163 170 180 186 161 141 159 191 158 159 201 196 169 177 171 199 188 107 208 197 230 265 254 298 288 268 268 249 242 252 245 247 248 245 257 255 241 223
124 123 114 114 119 125 142 149 149 153 157 139 131 165 186 159 133 166 149 143 184 159 143 158 164 157 172 175 176 187 174 173 214 209 192 192 197 196 193 190 184 175 163 164 157 169 181 181 164 165 176 180 180 173 164 160 158 165 169 176 194 76 116 152 262 116 123 232 221 182 246 286 296 290 274 247 253 246 229 243 240 237 242 238 240 248 245 224
121 120 108 110 119 124 143 153 150 146 152 145 146 171 184 155 106 126 126 130 155 165 150 160 171 156 162 158 168 185 174 163 211 209 195 192 197 197 196 195 186 185 182 172 172 181 164 129 165 175 180 186 181 159 168 178 152 151 185 176 124 43 56 126 238 167 159 243 237 183 218 229 206 263 268 232 242 241 215 222 232 235 234 233 238 244 240 219
117 114 106 111 124 127 144 156 147 125 112 161 169 181 157 160 160 129 138 143 127 150 160 152 165 158 161 162 163 173 171 175 199 196 185 189 196 190 190 193 185 190 200 189 177 162 145 113 359 263 180 149 89 126 165 249 246 154 173 166 146 202 204 170 202 209 196 233 260 210 217 215 200 223 303 245 232 229 215 209 216 231 231 232 242 241 223 195
118 112 105 127 135 127 141 151 136 82 85 171 191 203 150 143 151 126 133 134 105 146 166 122 67 101 167 165 154 162 172 179 185 185 188 186 189 185 186 191 186 188 200 199 178 155 155 142 109 282 260 132 106 145 182 199 347 106 151 179 196 226 195 182 194 183 180 224 256 238 222 229 211 193 203 234 228 211 209 199 198 222 229 223 210 178 156 139
126 111 111 143 144 133 141 146 136 108 186 181 192 187 132 129 136 121 103 93 66 31 134 99 92 114 141 154 147 158 173 178 178 184 199 187 177 183 188 192 187 184 194 202 184 155 153 145 137 175 298 185 168 200 189 176 168 164 176 190 198 197 130 173 199 191 165 202 245 257 250 254 236 183 197 222 231 218 207 190 194 215 211 181 152 143 146 146
139 106 123 157 155 144 146 149 166 186 190 203 183 131 83 125 134 129 95 86 75 25 45 87 129 131 113 133 145 153 159 170 179 181 198 193 186 190 195 192 183 179 189 200 186 163 157 148 139 142 217 191 179 198 201 182 176 179 186 188 187 184 144 155 207 209 197 213 235 258 266 264 248 196 195 208 219 211 188 179 195 193 162 142 135 144 152 153
136 104 138 170 166 153 148 155 181 182 199 218 180 101 116 132 127 141 124 92 90 47 29 50 83 130 120 100 108 132 145 159 177 180 190 206 206 213 200 192 185 178 184 192 187 170 123 110 135 138 166 178 161 199 315 213 182 184 201 191 184 183 175 188 209 197 183 222 248 301 280 273 238 172 172 178 173 150 145 164 183 161 132 122 122 137 143 145
101 97 129 163 169 161 153 162 179 190 203 201 134 92 123 123 114 141 141 121 120 93 57 58 17 60 123 112 98 125 156 159 175 190 200 216 218 234 203 192 187 182 186 187 184 174 91 109 136 102 74 35 39 49 351 354 169 183 217 197 184 193 195 194 196 165 169 203 194 204 257 265 273 2 113 123 120 120 137 156 145 117 105 114 129 138 137 142
99 101 120 159 173 179 185 172 175 184 188 178 132 111 125 122 135 148 150 157 147 116 135 149 43 12 77 139 149 157 180 179 177 200 210 231 222 244 232 202 191 187 192 182 176 187 173 151 140 121 139 110 77 145 268 317 210 195 202 199 191 191 190 183 156 139 192 204 186 199 239 240 270 343 21 79 120 152 191 166 137 135 138 143 146 136 123 94
110 101 102 138 164 191 240 211 156 170 173 173 154 143 148 134 153 164 160 161 156 136 145 157 127 99 66 10 150 161 183 188 179 205 214 294 288 309 279 226 205 199 192 177 181 186 174 171 163 161 173 176 178 187 186 189 197 189 189 195 197 191 186 189 190 174 213 210 185 205 237 237 306 330 327 291 202 202 217 178 142 152 165 162 152 134 124 229
121 112 125 132 93 319 269 306 323 208 179 172 161 172 187 181 169 171 163 154 157 152 142 141 136 112 81 31 35 168 192 186 108 137 197 238 273 291 281 244 223 209 182 172 192 178 139 189 193 186 190 190 189 182 145 144 158 169 180 189 197 198 188 190 201 205 218 217 194 232 253 273 281 271 260 256 234 220 222 192 164 170 181 178 167 157 174 216
127 129 149 151 118 218 253 271 281 258 188 167 165 178 188 190 158 155 182 177 156 153 141 133 146 146 149 158 141 220 200 175 122 132 182 215 241 302 300 260 232 209 172 175 201 171 136 194 199 201 206 194 165 138 138 150 167 176 176 178 187 190 181 192 213 219 224 236 249 249 251 260 260 245 213 215 227 224 223 205 189 185 182 181 170 169 199 230
38 114 153 160 150 189 210 220 233 256 244 184 169 152 171 188 172 155 182 196 159 155 148 151 174 173 165 163 162 210 190 166 163 174 174 192 214 291 306 257 226 196 174 197 214 174 166 194 191 198 202 173 129 139 158 168 176 178 176 179 185 184 183 194 210 216 211 207 229 235 229 237 246 236 195 198 209 214 217 200 184 172 160 162 167 179 209 229
14 55 133 150 94 158 161 157 179 214 245 230 189 157 164 186 193 181 155 142 173 182 173 180 190 185 183 174 164 191 196 173 189 197 177 172 189 193 214 237 224 176 172 203 230 217 211 191 175 181 194 182 148 146 164 175 176 179 184 187 186 186 191 197 206 214 213 212 227 231 231 238 242 221 191 205 201 202 202 166 153 156 154 164 183 199 214 223
15 27 97 140 4 116 155 159 169 192 219 227 217 198 186 191 194 191 170 162 178 185 185 201 197 182 187 184 176 202 210 201 237 223 169 166 188 204 208 218 205 162 170 187 206 235 242 187 162 162 184 199 165 154 168 178 176 180 189 191 189 190 197 204 212 217 215 220 231 234 243 253 246 173 176 225 192 173 164 154 165 166 164 180 199 212 221 225
26 22 20 208 162 117 157 161 166 201 210 208 211 200 203 208 194 184 188 188 189 183 187 202 201 182 184 188 194 211 209 205 232 243 161 172 196 215 216 222 191 176 177 174 177 192 203 186 164 155 175 206 186 168 171 174 179 188 191 190 189 189 196 205 213 214 208 215 228 234 246 253 234 145 199 237 202 173 168 172 184 180 182 197 205 216 227 231
19 17 9 0 112 119 156 148 162 205 222 217 216 208 213 216 175 168 192 203 205 206 200 201 199 183 183 196 208 216 206 198 213 221 185 194 230 271 278 296 299 211 195 184 179 178 172 173 168 163 183 204 193 174 168 163 174 201 200 192 188 193 199 204 212 216 211 211 216 219 232 237 191 153 208 221 211 208 200 188 191 196 204 211 212 216 226 233